Weather History for K1H2 - October, 2012

Change the Weather History Date:

Wednesday, October 31, 2012

  Actual Average (KMTO) Record (KMTO)
Temperature  
Mean Temperature 40 °F 50 °F  
Max Temperature 49 °F 59 °F 84 °F (1950)
Min Temperature 32 °F 40 °F 26 °F (1988)
Degree Days  
Heating Degree Days 24 15  
Month to date heating degree days 334  
Since 1 July heating degree days 404  
Cooling Degree Days 0 0  
Month to date cooling degree days 19  
Year to date cooling degree days 1057  
Moisture  
Dew Point 27 °F    
Average Humidity 63    
Maximum Humidity 79    
Minimum Humidity 42    
Precipitation  
Precipitation 0.00 in 0.08 in 1.05 in (1972)
Month to date precipitation 2.83  
Year to date precipitation 31.80  
Sea Level Pressure  
Sea Level Pressure 29.90 in    
Wind  
Wind Speed 9 mph (WNW)    
Max Wind Speed 17 mph    
Max Gust Speed 23 mph    
Visibility 10 miles    
Events      
T = Trace of Precipitation, MM = Missing Value Source: NWS Daily Summary

Daily Weather History Graph

Daily Weather History Graph

Search for Another Location

Airport or City:

Trip Planner

Search our weather history database for the weather conditions in past years. The results will help you decide how hot, cold, wet, or windy it might be!

Date:

Astronomy

Oct. 31, 2012 Rise Set
Actual Time 7:21 AM CDT 5:53 PM CDT
Civil Twilight 6:53 AM CDT 6:21 PM CDT
Nautical Twilight 6:21 AM CDT 6:52 PM CDT
Astronomical Twilight 5:50 AM CDT 7:24 PM CDT
Moon 7:05 PM CDT (10/31) 9:01 AM CDT (10/31)
Length of Visible Light 11h 28m
Length of Day
10h 32m
Full, 97% of the Moon is Illuminated
Oct 31
Full
Nov 6
Last Quarter
Nov 13
New
Nov 20
First Quarter
Nov 28
Full

Hourly Weather History & Observations

Time (CDT) Temp. Windchill Dew Point Humidity Pressure Visibility Wind Dir Wind Speed Gust Speed Precip Events Conditions
12:15 AM 35.6 °F 29.9 °F 27.0 °F 71% 29.85 in 10.0 mi WNW 6.9 mph - N/A   Clear
12:35 AM 34.7 °F 30.6 °F 26.2 °F 71% 29.85 in 10.0 mi WNW 4.6 mph - N/A   Clear
12:55 AM 33.6 °F 26.2 °F 26.2 °F 74% 29.85 in 10.0 mi West 9.2 mph - N/A   Clear
1:15 AM 33.6 °F 28.4 °F 26.6 °F 75% 29.85 in 10.0 mi WNW 5.8 mph - N/A   Clear
1:35 AM 35.6 °F 29.9 °F 26.6 °F 70% 29.85 in 10.0 mi WNW 6.9 mph - N/A   Clear
1:55 AM 34.7 °F 28.8 °F 26.4 °F 72% 29.85 in 10.0 mi WNW 6.9 mph - N/A   Clear
2:15 AM 34.3 °F 29.2 °F 26.4 °F 73% 29.85 in 10.0 mi WNW 5.8 mph - N/A   Clear
2:35 AM 35.4 °F 29.0 °F 25.7 °F 68% 29.86 in 10.0 mi WNW 8.1 mph - N/A   Clear
2:55 AM 33.6 °F 27.5 °F 26.1 °F 74% 29.86 in 10.0 mi WNW 6.9 mph - N/A   Clear
3:15 AM 33.3 °F 26.4 °F 25.7 °F 74% 29.86 in 10.0 mi WNW 8.1 mph - N/A   Clear
3:35 AM 32.5 °F 26.2 °F 25.7 °F 76% 29.86 in 10.0 mi WNW 6.9 mph - N/A   Clear
3:55 AM 32.0 °F 25.6 °F 26.1 °F 79% 29.86 in 10.0 mi WNW 6.9 mph - N/A   Clear
4:15 AM 32.4 °F 26.0 °F 26.2 °F 78% 29.87 in 10.0 mi WNW 6.9 mph - N/A   Clear
4:35 AM 32.4 °F 26.0 °F 26.1 °F 78% 29.87 in 10.0 mi WNW 6.9 mph - N/A   Clear
4:55 AM 32.5 °F 25.5 °F 26.1 °F 77% 29.87 in 10.0 mi WNW 8.1 mph - N/A   Clear
5:15 AM 32.9 °F 25.3 °F 25.7 °F 75% 29.88 in 10.0 mi WNW 9.2 mph - N/A   Clear
5:35 AM 33.8 °F 26.4 °F 25.7 °F 72% 29.87 in 10.0 mi WNW 9.2 mph - N/A   Clear
5:55 AM 34.3 °F 26.5 °F 25.3 °F 70% 29.87 in 10.0 mi NW 10.4 mph - N/A   Clear
6:15 AM 34.0 °F 26.6 °F 25.3 °F 71% 29.87 in 10.0 mi NW 9.2 mph - N/A   Clear
6:35 AM 33.8 °F 27.0 °F 25.3 °F 71% 29.88 in 10.0 mi NW 8.1 mph - N/A   Clear
6:55 AM 33.3 °F 25.7 °F 25.5 °F 73% 29.88 in 10.0 mi NW 9.2 mph - N/A   Clear
7:15 AM 32.9 °F 25.3 °F 25.5 °F 74% 29.88 in 10.0 mi WNW 9.2 mph - N/A   Clear
7:35 AM 33.1 °F 26.1 °F 25.5 °F 74% 29.88 in 10.0 mi NW 8.1 mph - N/A   Clear
7:55 AM 33.3 °F 25.7 °F 25.7 °F 74% 29.90 in 10.0 mi NW 9.2 mph - N/A   Clear
8:15 AM 34.3 °F 27.0 °F 25.9 °F 71% 29.90 in 10.0 mi NW 9.2 mph - N/A   Clear
8:35 AM 35.2 °F 27.6 °F 26.4 °F 70% 29.91 in 10.0 mi NW 10.4 mph - N/A   Clear
8:55 AM 36.0 °F 27.5 °F 26.4 °F 68% 29.91 in 10.0 mi NW 12.7 mph - N/A   Clear
9:15 AM 37.2 °F 29.1 °F 27.1 °F 67% 29.91 in 10.0 mi NW 12.7 mph - N/A   Clear
9:35 AM 38.1 °F 31.2 °F 26.8 °F 64% 29.90 in 10.0 mi NW 10.4 mph - N/A   Clear
9:55 AM 40.3 °F 33.9 °F 27.7 °F 61% 29.91 in 10.0 mi NW 10.4 mph - N/A   Clear
10:15 AM 39.2 °F 33.0 °F 27.7 °F 63% 29.91 in 10.0 mi NW 9.2 mph - N/A   Clear
10:35 AM 39.2 °F 32.0 °F 28.4 °F 65% 29.91 in 10.0 mi WNW 11.5 mph - N/A   Clear
10:55 AM 40.3 °F 32.6 °F 28.0 °F 62% 29.92 in 10.0 mi WNW 13.8 mph - N/A   Clear
11:15 AM 40.3 °F 33.0 °F 28.0 °F 62% 29.92 in 10.0 mi NW 12.7 mph - N/A   Clear
11:35 AM 43.0 °F 36.4 °F 29.8 °F 60% 29.92 in 10.0 mi WNW 12.7 mph - N/A   Clear
11:55 AM 43.0 °F 36.8 °F 30.2 °F 61% 29.92 in 10.0 mi WNW 11.5 mph - N/A   Clear
12:15 PM 42.3 °F 35.5 °F 28.4 °F 58% 29.92 in 10.0 mi WNW 12.7 mph 19.6 mph N/A   Clear
12:35 PM 45.0 °F 37.6 °F 29.8 °F 55% 29.91 in 10.0 mi NW 17.3 mph 20.7 mph N/A   Clear
12:55 PM 46.4 °F 39.5 °F 31.1 °F 55% 29.90 in 10.0 mi West 17.3 mph - N/A   Clear
1:15 PM 47.3 °F - 30.6 °F 52% 29.90 in 10.0 mi WNW 11.5 mph 19.6 mph N/A   Clear
1:35 PM 48.2 °F - 32.0 °F 54% 29.90 in 10.0 mi WNW 12.7 mph 19.6 mph N/A   Clear
1:55 PM 48.2 °F - 30.9 °F 51% 29.90 in 10.0 mi WNW 12.7 mph 18.4 mph N/A   Clear
2:15 PM 48.0 °F - 31.6 °F 53% 29.89 in 10.0 mi West 12.7 mph 16.1 mph N/A   Clear
2:35 PM 49.3 °F - 32.0 °F 51% 29.88 in 10.0 mi WNW 13.8 mph 19.6 mph N/A   Clear
2:55 PM 49.5 °F - 30.7 °F 49% 29.89 in 10.0 mi NW 16.1 mph - N/A   Clear
3:15 PM 49.6 °F - 31.1 °F 49% 29.89 in 10.0 mi NW 12.7 mph 21.9 mph N/A   Clear
3:35 PM 49.5 °F - 30.0 °F 47% 29.89 in 10.0 mi WNW 15.0 mph - N/A   Clear
3:55 PM 49.1 °F - 28.9 °F 46% 29.89 in 10.0 mi WNW 16.1 mph 23.0 mph N/A   Clear
4:15 PM 49.5 °F - 27.3 °F 42% 29.89 in 10.0 mi WNW 12.7 mph - N/A   Clear
4:35 PM 49.3 °F - 27.1 °F 42% 29.89 in 10.0 mi WNW 15.0 mph 19.6 mph N/A   Clear
4:55 PM 48.7 °F - 27.5 °F 44% 29.89 in 10.0 mi WNW 12.7 mph - N/A   Clear
5:15 PM 48.0 °F - 27.5 °F 45% 29.89 in 10.0 mi WNW 11.5 mph - N/A   Clear
5:35 PM 46.4 °F 42.4 °F 27.1 °F 47% 29.90 in 10.0 mi WNW 8.1 mph - N/A   Clear
5:55 PM 43.3 °F 39.2 °F 28.2 °F 55% 29.90 in 10.0 mi WNW 6.9 mph - N/A   Clear
6:15 PM 40.3 °F 37.1 °F 27.5 °F 60% 29.90 in 10.0 mi WNW 4.6 mph - N/A   Clear
6:35 PM 40.1 °F 35.3 °F 27.1 °F 60% 29.91 in 10.0 mi West 6.9 mph - N/A   Clear
6:55 PM 39.2 °F 33.6 °F 26.6 °F 61% 29.91 in 10.0 mi West 8.1 mph - N/A   Clear
7:15 PM 37.8 °F 31.8 °F 26.4 °F 64% 29.92 in 10.0 mi West 8.1 mph - N/A   Clear
7:35 PM 36.9 °F 31.4 °F 26.4 °F 66% 29.92 in 10.0 mi West 6.9 mph - N/A   Clear
7:55 PM 37.2 °F 32.6 °F 25.5 °F 63% 29.92 in 10.0 mi West 5.8 mph - N/A   Clear
8:15 PM 36.7 °F 32.9 °F 25.3 °F 64% 29.92 in 10.0 mi WNW 4.6 mph - N/A   Clear
8:35 PM 36.9 °F 32.2 °F 24.4 °F 61% 29.93 in 10.0 mi West 5.8 mph - N/A   Clear
8:55 PM 37.0 °F 32.4 °F 24.4 °F 60% 29.93 in 10.0 mi WNW 5.8 mph - N/A   Clear
9:15 PM 37.4 °F 33.8 °F 23.9 °F 58% 29.93 in 10.0 mi WNW 4.6 mph - N/A   Clear
9:35 PM 35.6 °F 31.7 °F 24.3 °F 63% 29.93 in 10.0 mi WNW 4.6 mph - N/A   Clear
9:55 PM 35.6 °F 30.7 °F 23.5 °F 62% 29.93 in 10.0 mi West 5.8 mph - N/A   Clear
10:15 PM 35.8 °F 30.1 °F 23.0 °F 60% 29.93 in 10.0 mi West 6.9 mph - N/A   Clear
10:35 PM 35.1 °F 32.2 °F 23.7 °F 63% 29.93 in 10.0 mi WNW 3.5 mph - N/A   Clear
10:55 PM 34.5 °F 29.4 °F 23.0 °F 63% 29.93 in 10.0 mi West 5.8 mph - N/A   Clear
11:15 PM 33.6 °F 28.4 °F 24.6 °F 70% 29.93 in 10.0 mi West 5.8 mph - N/A   Clear
11:35 PM 33.3 °F 27.9 °F 24.3 °F 70% 29.93 in 10.0 mi West 5.8 mph - N/A   Clear
11:55 PM 33.6 °F 28.4 °F 24.3 °F 69% 29.93 in 10.0 mi West 5.8 mph - N/A   Clear